Regional Weather Roundup
Issued by NWS

Home | Current Version | Previous Version | Text Only | Print | Product List | Glossary Off
Versions: 1 2 3 4 5 6 7 8 9 10 11 12 13 14 15 16 17 18 19 20 21 22 23 24 25 26 27 28 29 30 31 32 33 34 35 36 37 38 39 40 41 42 43 44 45 46 47 48 49 50

000
ASUS43 KFSD 051802
RWRSD

WEATHER ROUNDUP FOR SOUTH DAKOTA
NATIONAL WEATHER SERVICE SIOUX FALLS SD
100 PM CDT THU MAY 05 2016

NOTE: "FAIR" INDICATES FEW OR NO CLOUDS BELOW 12,000 FEET WITH NO
SIGNIFICANT WEATHER AND/OR OBSTRUCTIONS TO VISIBILITY.


SDZ001>005-009-010-012>017-051900-
NORTHWEST AND NORTH CENTRAL SOUTH DAKOTA

CITY           SKY/WX    TMP DP  RH WIND       PRES   REMARKS
BUFFALO          N/A     82  44  26 SE8       29.85F
FAITH            N/A     74  49  41 S9        29.91F
MOBRIDGE       SUNNY     83  48  29 S22G29    29.86F
$$

SDZ012>016-024>037-041>051-057-063-072>074-051900-
SOUTHWEST AND SOUTH CENTRAL SOUTH DAKOTA

CITY           SKY/WX    TMP DP  RH WIND       PRES   REMARKS
RAPID CTY ARPT SUNNY     79  50  36 SE9       29.93F
PIERRE         SUNNY     82  48  30 S21       29.91F
CUSTER         SUNNY     77  28  16 W7        30.05F
PHILIP         SUNNY     81  51  35 S9        29.90F
PINE RIDGE     SUNNY     79  48  33 S13       29.96F
WINNER         FAIR      82  47  29 S15G23    29.97F
$$

SDZ004>011-016>023-039-040-051900-
NORTHEAST SOUTH DAKOTA

CITY           SKY/WX    TMP DP  RH WIND       PRES   REMARKS
ABERDEEN       SUNNY     85  39  19 SW16G22   29.92F
WATERTOWN      SUNNY     78  42  27 SW14      29.98F
BROOKINGS      SUNNY     75  42  30 SW13      30.00F
SISSETON         N/A     81  43  26 W20G26    29.90F
$$

SDZ017-020-022-023-036>040-048>070-051900-
SOUTHEAST SOUTH DAKOTA

CITY           SKY/WX    TMP DP  RH WIND       PRES   REMARKS
SIOUX FALLS    MOSUNNY   71  48  43 S12       30.03F
HURON          SUNNY     79  46  31 S12       29.96F
MITCHELL       SUNNY     78  46  32 SW13G20   29.99F
YANKTON        SUNNY     73  43  33 S6        30.02F
$$

ABBREVIATIONS USED IN REMARKS
   TC - TEMPERATURE IN CELSIUS
  WCI - WIND CHILL INDEX
   HX - HEAT INDEX
  VSB - VISIBILITY





USA.gov is the U.S. government's official web portal to all federal, state and local government web resources and services.